Wetbulb
64.75 63.53 62.44 65.21 63.59 63.50 63.95 62.43 63.91 63.69 65.74 65.49 66.30 66.16 67.67 67.56 67.27 66.87 65.01 63.44 64.57 63.76
63.84 63.98 63.95 66.70 66.83 64.61 63.82 64.33 65.04 64.70 64.13 65.88 66.21 65.50 67.51 68.21 67.42 66.43 63.87 63.06 63.34 62.77
63.08 63.75 64.62 65.95 65.50 64.69 64.57 62.76 63.60 65.11 65.76 65.79 66.69 66.99 66.99 67.12 66.75 65.10 64.75 64.25 63.87 61.57
62.24 63.13 63.82 63.94 64.54 64.60 63.15 64.58 63.19 61.30 61.71 62.74 64.91 65.80 66.96 65.92 63.62 63.03 62.94 63.71 62.38 61.26
61.97 62.83 63.15 63.74 64.48 65.34 65.06 64.58 64.62 63.51 61.80 61.77 61.43 63.40 64.17 65.45 64.43 64.89 63.60 64.06 63.66 61.33
61.65 62.52 62.88 63.45 63.60 64.12 63.64 64.84 65.18 63.53 62.75 61.98 61.18 62.11 62.97 63.34 64.29 64.98 65.42 65.63 65.24 64.33
61.61 62.11 62.75 63.49 63.87 63.49 63.04 63.19 63.91 64.24 63.79 64.20 63.51 62.61 64.87 66.39 66.19 65.78 65.88 65.77 66.16 66.05
61.81 61.73 62.33 62.47 63.58 64.04 63.31 62.58 62.17 62.35 62.52 63.13 63.01 62.38 63.38 63.60 64.06 63.99 63.82 64.47 64.55 65.09
59.79 60.90 61.46 62.44 63.26 63.42 63.05 62.63 62.44 62.12 62.01 62.18 60.24 47.46 52.02 60.47 62.52 62.58 62.38 61.99 60.95 59.47
58.87 59.62 61.05 61.19 61.85 62.86 63.43 64.09 62.79 62.51 62.39 62.54 60.18 45.49 47.82 53.84 64.65 63.74 63.56 63.42 63.22 61.03
58.24 58.41 60.26 60.96 61.58 63.21 63.98 64.04 63.56 63.14 63.10 62.81 57.69 44.37 45.58 51.71 63.97 63.79 63.53 63.74 63.50 62.92
58.72 58.30 59.54 60.08 61.61 62.82 63.24 63.57 63.24 63.11 62.87 62.31 60.36 43.43 43.15 50.80 61.53 61.24 60.62 59.94 59.82 60.26
59.60 59.02 59.07 60.23 61.57 62.46 62.59 62.00 61.04 61.31 62.40 56.44 61.49 42.15 41.58 49.14 57.28 58.57 56.86 57.03 56.23 44.19
60.72 59.68 60.83 61.65 61.93 61.57 61.31 60.58 60.62 59.93 61.06 61.02 59.65 56.78 40.73 41.39 57.02 56.07 54.46 53.56 54.07 52.35
MSLP
1011.68 1011.30 1011.95 1011.84 1012.02 1012.03 1011.97 1012.24 1012.04 1012.02 1011.84 1011.87 1011.89 1012.25 1012.25 1012.86 1013.46 1014.04 1014.60 1015.29 1016.23 1016.70
1011.79 1011.76 1011.80 1012.05 1011.88 1012.10 1012.26 1012.38 1012.28 1012.38 1012.44 1012.49 1012.47 1012.83 1012.91 1013.20 1013.83 1014.65 1015.66 1016.41 1016.90 1017.28
1011.82 1011.80 1011.83 1011.96 1012.09 1012.14 1012.18 1012.45 1012.58 1012.70 1012.86 1012.95 1013.08 1013.28 1013.53 1013.93 1014.45 1015.21 1015.82 1016.49 1016.99 1017.63
1011.91 1011.93 1012.04 1012.02 1012.09 1012.38 1012.67 1012.60 1012.91 1013.28 1013.42 1013.64 1013.74 1013.98 1013.94 1014.20 1014.92 1015.45 1016.06 1016.71 1017.12 1017.77
1012.09 1012.10 1012.23 1012.29 1012.39 1012.46 1012.74 1013.08 1013.28 1013.71 1013.97 1014.20 1014.38 1014.52 1014.64 1014.72 1014.95 1015.08 1015.73 1016.13 1016.66 1017.52
1012.26 1012.32 1012.43 1012.63 1012.82 1012.55 1013.01 1013.09 1013.28 1013.90 1014.27 1014.50 1014.77 1014.96 1014.88 1015.05 1015.09 1015.43 1015.39 1016.02 1016.56 1017.28
1012.28 1012.54 1012.64 1012.75 1012.84 1012.84 1012.91 1013.20 1013.42 1013.66 1014.06 1014.35 1014.49 1014.69 1014.60 1014.76 1015.14 1015.44 1015.74 1016.19 1016.41 1016.93
1012.19 1012.57 1012.77 1012.92 1013.06 1013.18 1013.27 1013.32 1013.55 1013.85 1014.13 1014.41 1014.58 1014.76 1015.03 1015.10 1015.39 1015.80 1016.24 1016.51 1016.73 1017.29
1011.89 1012.30 1012.76 1013.09 1013.32 1013.47 1013.62 1013.68 1013.79 1013.96 1014.26 1014.66 1015.35 1015.76 1015.78 1015.82 1015.97 1016.05 1016.34 1016.82 1017.69 1018.18
1011.64 1012.06 1012.62 1013.01 1013.28 1013.54 1013.85 1014.08 1014.21 1014.43 1014.71 1015.23 1016.14 1016.61 1016.49 1016.35 1016.42 1016.63 1017.01 1017.38 1017.75 1017.86
1011.26 1011.74 1012.33 1012.86 1013.31 1013.82 1014.14 1014.25 1014.47 1014.74 1015.10 1015.60 1016.56 1016.81 1016.83 1016.81 1016.76 1016.93 1017.17 1017.40 1017.73 1018.04
1010.77 1011.41 1012.05 1012.58 1013.26 1013.84 1014.19 1014.47 1014.71 1014.93 1015.32 1015.64 1016.55 1017.21 1017.35 1017.30 1017.15 1017.26 1017.46 1017.65 1017.93 1018.17
1010.26 1011.01 1011.76 1012.39 1013.11 1013.73 1014.10 1014.33 1014.40 1014.95 1015.36 1015.78 1016.17 1017.20 1017.48 1017.56 1016.88 1017.38 1017.52 1018.13 1018.60 1019.06
1010.04 1010.78 1011.49 1012.25 1013.01 1013.55 1013.86 1013.88 1014.43 1014.75 1015.29 1015.70 1016.17 1017.08 1017.63 1017.84 1017.20 1017.21 1017.48 1017.77 1018.53 1019.02
Wind_Speed
8 6 5 6 5 4 7 4 7 6 9 9 9 10 12 9 8 11 8 12 4 7
6 6 5 7 7 6 6 4 6 6 6 9 11 8 11 8 11 11 11 8 6 6
6 6 6 5 7 7 4 6 6 8 6 7 10 11 11 9 11 13 10 8 10 9
5 6 6 6 7 9 7 6 7 7 6 6 7 7 9 11 8 10 10 10 11 9
6 6 6 7 8 9 10 9 9 8 6 4 4 3 5 8 6 12 9 9 12 12
6 6 6 7 5 10 9 10 11 12 10 6 4 5 7 5 10 9 9 10 12 11
7 8 6 6 7 8 9 12 11 11 11 11 8 8 11 12 11 11 10 10 11 11
8 8 8 7 7 7 8 10 11 12 11 11 9 7 10 11 11 12 12 11 10 7
10 10 9 7 7 8 9 9 10 10 10 12 9 9 9 10 10 10 11 10 10 9
10 11 10 9 8 8 8 8 9 10 10 10 10 6 9 5 10 10 10 9 8 8
11 12 11 10 9 8 7 8 7 7 8 9 7 5 6 5 7 7 6 6 5 5
12 13 12 12 10 9 8 7 7 7 6 6 7 6 3 4 6 6 5 4 4 4
13 13 13 13 11 9 8 8 7 7 6 4 7 7 6 5 5 6 5 5 5 3
13 13 13 12 11 10 9 8 7 7 6 7 6 9 9 8 5 7 7 7 7 7
Wind_Direction
32 58 68 59 101 98 85 55 43 71 104 98 112 123 136 134 123 124 105 103 115 130
57 38 64 77 82 63 70 74 62 87 118 100 112 127 128 119 120 108 115 125 140 113
78 51 50 72 74 70 80 89 55 72 81 99 91 93 108 111 117 115 128 132 138 133
88 69 71 64 67 82 88 109 100 69 66 56 74 79 95 103 110 114 136 144 134 126
104 94 78 73 77 88 108 118 119 109 103 97 82 83 94 125 138 130 144 138 137 137
118 117 94 88 76 87 107 112 125 130 129 127 133 158 128 134 129 124 129 142 136 160
139 136 118 106 102 93 91 104 106 115 127 139 146 122 122 128 127 127 126 137 140 153
148 144 144 128 116 104 103 104 109 108 108 114 122 108 110 105 110 114 115 112 107 92
161 153 152 148 134 129 123 117 114 109 102 92 85 35 60 117 115 112 110 106 107 113
165 165 160 161 157 143 137 131 122 119 113 104 105 80 70 62 116 120 121 125 132 134
171 172 168 168 162 154 152 149 145 136 125 129 105 77 68 65 109 112 113 118 125 122
174 172 175 175 168 168 165 160 164 162 159 156 140 144 148 247 165 138 126 115 108 122
175 173 178 180 177 175 180 179 183 178 182 128 160 168 185 229 167 150 149 151 136 352
175 175 176 174 173 175 186 178 198 187 182 185 197 163 185 222 202 159 174 166 175 177